OCN91D EDDM-LEPA

Flight info

Callsign OCN91D
Flight time 1h 56m
Altitude 39000
Route TURBU7S TURBU Y107 TOBSO DCT BAKOR DCT SUMIR DCT MISPO DCT PIDAD DCT TALEP DCT RARQU DCT BALEN UT250 RIXOT
Aircraft A320/M-SDE2E3FGIJ1LORWXYZ/HB1

Departure

Time 2026-05-05 17:07
Airport Munich Airport (EDDM)

Arrival

Time 2026-05-05 19:04
Airport Palma de Mallorca Airport (LEPA)
Time Latitude Longitude Altitude Speed Heading
2026-05-05 16:31 48.35271 11.80843 1473 ft 0 kts 353°
2026-05-05 16:54 48.35252 11.80846 1475 ft 3 kts 353°
2026-05-05 16:54 48.35229 11.80850 1478 ft 3 kts 353°
2026-05-05 16:54 48.35207 11.80854 1471 ft 3 kts 353°
2026-05-05 16:54 48.35188 11.80857 1474 ft 2 kts 353°
2026-05-05 16:55 48.35172 11.80864 1473 ft 3 kts 297°
2026-05-05 16:55 48.35169 11.80891 1473 ft 3 kts 263°
2026-05-05 16:55 48.35171 11.80914 1475 ft 0 kts 263°
2026-05-05 17:00 48.35171 11.80913 1485 ft 1 kts 263°
2026-05-05 17:00 48.35168 11.80876 1485 ft 4 kts 263°
2026-05-05 17:00 48.35164 11.80821 1481 ft 7 kts 263°
2026-05-05 17:00 48.35158 11.80750 1479 ft 6 kts 263°
2026-05-05 17:01 48.35154 11.80695 1480 ft 7 kts 263°
2026-05-05 17:01 48.35147 11.80606 1485 ft 8 kts 263°
2026-05-05 17:01 48.35140 11.80518 1477 ft 10 kts 263°
2026-05-05 17:01 48.35132 11.80414 1485 ft 12 kts 263°
2026-05-05 17:02 48.35117 11.80282 1485 ft 14 kts 260°
2026-05-05 17:02 48.35105 11.80135 1485 ft 15 kts 263°
2026-05-05 17:02 48.35092 11.79973 1485 ft 16 kts 263°
2026-05-05 17:02 48.35079 11.79798 1480 ft 18 kts 263°
2026-05-05 17:03 48.35060 11.79689 1481 ft 5 kts 231°
2026-05-05 17:03 48.35048 11.79675 1481 ft 0 kts 213°
2026-05-05 17:03 48.35038 11.79669 1481 ft 3 kts 199°
2026-05-05 17:04 48.35003 11.79668 1485 ft 5 kts 174°
2026-05-05 17:04 48.34995 11.79669 1485 ft 0 kts 173°
2026-05-05 17:04 48.34994 11.79669 1485 ft 1 kts 179°
2026-05-05 17:04 48.34984 11.79629 1471 ft 10 kts 259°
2026-05-05 17:05 48.34942 11.79546 1484 ft 10 kts 188°
2026-05-05 17:05 48.34857 11.79557 1480 ft 14 kts 174°
2026-05-05 17:05 48.34764 11.79555 1476 ft 12 kts 183°
2026-05-05 17:05 48.34680 11.79560 1475 ft 12 kts 178°
2026-05-05 17:06 48.34594 11.79481 1476 ft 19 kts 233°
2026-05-05 17:06 48.34511 11.79313 1475 ft 21 kts 233°
2026-05-05 17:06 48.34420 11.79130 1474 ft 23 kts 233°
2026-05-05 17:06 48.34359 11.78886 1481 ft 34 kts 262°
2026-05-05 17:07 48.34303 11.78153 1486 ft 105 kts 263°
2026-05-05 17:07 48.34238 11.77295 1486 ft 143 kts 263°
2026-05-05 17:07 48.34085 11.75063 2040 ft 167 kts 266°
2026-05-05 17:07 48.33956 11.73298 2736 ft 175 kts 268°
2026-05-05 17:08 48.33745 11.72043 2975 ft 193 kts 247°
2026-05-05 17:08 48.32748 11.70511 3304 ft 229 kts 211°
2026-05-05 17:08 48.31155 11.69993 4113 ft 239 kts 182°
2026-05-05 17:08 48.29498 11.70192 5059 ft 240 kts 171°
2026-05-05 17:09 48.27958 11.71214 5904 ft 252 kts 148°
2026-05-05 17:09 48.26495 11.72923 6345 ft 276 kts 144°
2026-05-05 17:09 48.24964 11.74682 7125 ft 282 kts 146°
2026-05-05 17:09 48.23360 11.76428 8005 ft 287 kts 147°
2026-05-05 17:10 48.21699 11.78140 8873 ft 291 kts 149°
2026-05-05 17:10 48.20013 11.79801 9879 ft 290 kts 150°
2026-05-05 17:10 48.18254 11.81367 10455 ft 302 kts 161°
2026-05-05 17:10 48.16151 11.82072 10838 ft 316 kts 176°
2026-05-05 17:11 48.13973 11.82440 11551 ft 322 kts 176°
2026-05-05 17:11 48.11713 11.82807 12339 ft 327 kts 176°
2026-05-05 17:11 48.09435 11.83174 13108 ft 331 kts 176°
2026-05-05 17:11 48.07131 11.83546 13849 ft 335 kts 176°
2026-05-05 17:12 48.04798 11.83924 14547 ft 338 kts 176°
2026-05-05 17:12 48.02448 11.84313 15240 ft 341 kts 176°
2026-05-05 17:12 48.00078 11.84707 15927 ft 344 kts 175°
2026-05-05 17:12 47.97682 11.85104 16618 ft 347 kts 175°
2026-05-05 17:13 47.95293 11.85497 17295 ft 350 kts 175°
2026-05-05 17:13 47.92860 11.85894 17987 ft 353 kts 175°
2026-05-05 17:13 47.90411 11.86293 18578 ft 355 kts 175°
2026-05-05 17:13 47.87944 11.86698 19187 ft 358 kts 175°
2026-05-05 17:14 47.85462 11.87107 19781 ft 360 kts 175°
2026-05-05 17:14 47.82966 11.87521 20367 ft 362 kts 175°
2026-05-05 17:14 47.80450 11.87939 20929 ft 364 kts 176°
2026-05-05 17:14 47.77948 11.88350 21440 ft 367 kts 176°
2026-05-05 17:15 47.75396 11.88764 21982 ft 370 kts 176°
2026-05-05 17:15 47.72819 11.89179 22540 ft 372 kts 176°
2026-05-05 17:15 47.70236 11.89595 23107 ft 374 kts 176°
2026-05-05 17:15 47.67634 11.90016 23599 ft 377 kts 176°
2026-05-05 17:16 47.65051 11.90435 24037 ft 379 kts 176°
2026-05-05 17:16 47.62422 11.90863 24481 ft 381 kts 176°
2026-05-05 17:16 47.59780 11.91296 24906 ft 383 kts 177°
2026-05-05 17:16 47.57117 11.91732 25329 ft 386 kts 177°
2026-05-05 17:17 47.54430 11.92170 25770 ft 388 kts 177°
2026-05-05 17:17 47.51732 11.92606 26163 ft 391 kts 177°
2026-05-05 17:17 47.49018 11.93012 26577 ft 392 kts 181°
2026-05-05 17:17 47.46323 11.92640 26955 ft 389 kts 197°
2026-05-05 17:18 47.43770 11.91478 27346 ft 390 kts 200°
2026-05-05 17:18 47.41182 11.90236 27785 ft 392 kts 200°
2026-05-05 17:18 47.38564 11.88972 28167 ft 394 kts 200°
2026-05-05 17:18 47.35945 11.87706 28550 ft 397 kts 200°
2026-05-05 17:19 47.33315 11.86434 28970 ft 399 kts 200°
2026-05-05 17:19 47.30688 11.85167 29333 ft 401 kts 200°
2026-05-05 17:19 47.28027 11.83892 29667 ft 403 kts 200°
2026-05-05 17:19 47.25349 11.82614 30002 ft 406 kts 200°
2026-05-05 17:20 47.22656 11.81333 30291 ft 408 kts 200°
2026-05-05 17:20 47.19935 11.80036 30613 ft 409 kts 200°
2026-05-05 17:20 47.17247 11.78757 30886 ft 411 kts 200°
2026-05-05 17:20 47.14513 11.77457 31169 ft 414 kts 200°
2026-05-05 17:21 47.11753 11.76144 31476 ft 415 kts 200°
2026-05-05 17:21 47.09004 11.74834 31925 ft 413 kts 200°
2026-05-05 17:21 47.06312 11.73553 32293 ft 412 kts 200°
2026-05-05 17:22 47.00850 11.70962 33150 ft 410 kts 200°
2026-05-05 17:22 46.98161 11.69691 33594 ft 409 kts 200°
2026-05-05 17:22 46.95448 11.68408 33990 ft 408 kts 200°
2026-05-05 17:22 46.92748 11.67130 34342 ft 408 kts 200°
2026-05-05 17:23 46.90046 11.65852 34659 ft 407 kts 200°
2026-05-05 17:23 46.87349 11.64580 34970 ft 407 kts 200°
2026-05-05 17:23 46.84683 11.63323 35272 ft 407 kts 200°
2026-05-05 17:23 46.81975 11.62049 35532 ft 406 kts 201°
2026-05-05 17:24 46.79282 11.60784 35759 ft 407 kts 200°
2026-05-05 17:24 46.76610 11.59530 36020 ft 407 kts 200°
2026-05-05 17:24 46.73913 11.58265 36278 ft 407 kts 200°
2026-05-05 17:24 46.71207 11.56997 36527 ft 407 kts 200°
2026-05-05 17:25 46.68504 11.55734 36787 ft 407 kts 200°
2026-05-05 17:25 46.66722 11.54903 36957 ft 407 kts 200°
2026-05-05 17:25 46.63142 11.53237 37297 ft 406 kts 200°
2026-05-05 17:25 46.60444 11.51977 37522 ft 406 kts 200°
2026-05-05 17:26 46.57757 11.50720 37771 ft 405 kts 200°
2026-05-05 17:26 46.55069 11.49463 38024 ft 404 kts 200°
2026-05-05 17:26 46.52422 11.48227 38170 ft 406 kts 200°
2026-05-05 17:26 46.49722 11.46972 38329 ft 407 kts 200°
2026-05-05 17:27 46.47599 11.45991 38490 ft 407 kts 200°
2026-05-05 17:27 46.44895 11.44744 38670 ft 407 kts 200°
2026-05-05 17:27 46.42187 11.43493 38791 ft 409 kts 200°
2026-05-05 17:27 46.39506 11.42255 38940 ft 409 kts 201°
2026-05-05 17:28 46.36776 11.40992 38994 ft 412 kts 201°
2026-05-05 17:28 46.31241 11.38433 38993 ft 421 kts 200°
2026-05-05 17:29 46.25740 11.35510 39003 ft 425 kts 211°
2026-05-05 17:29 46.20851 11.30625 39006 ft 429 kts 218°
2026-05-05 17:30 46.16064 11.25524 39014 ft 430 kts 218°
2026-05-05 17:30 46.11218 11.20399 39018 ft 431 kts 218°
2026-05-05 17:31 46.06384 11.15301 39043 ft 428 kts 218°
2026-05-05 17:31 46.01593 11.10248 39010 ft 427 kts 218°
2026-05-05 17:32 45.96827 11.05230 39016 ft 428 kts 218°
2026-05-05 17:32 45.91999 11.00152 39015 ft 430 kts 218°
2026-05-05 17:33 45.87160 10.95087 39019 ft 430 kts 218°
2026-05-05 17:33 45.82343 10.90058 39006 ft 431 kts 218°
2026-05-05 17:34 45.77476 10.84987 39003 ft 432 kts 218°
2026-05-05 17:34 45.72641 10.79951 39002 ft 432 kts 218°
2026-05-05 17:35 45.67766 10.74888 38996 ft 432 kts 217°
2026-05-05 17:35 45.62885 10.69834 38989 ft 432 kts 218°
2026-05-05 17:36 45.58045 10.64825 38985 ft 432 kts 217°
2026-05-05 17:36 45.53165 10.59795 38986 ft 432 kts 217°
2026-05-05 17:37 45.48283 10.54775 39005 ft 432 kts 217°
2026-05-05 17:37 45.43406 10.49759 39002 ft 431 kts 218°
2026-05-05 17:38 45.38580 10.44803 39001 ft 430 kts 218°
2026-05-05 17:38 45.33691 10.39806 38997 ft 429 kts 218°
2026-05-05 17:39 45.28853 10.34870 38978 ft 429 kts 218°
2026-05-05 17:39 45.24017 10.29955 38984 ft 429 kts 218°
2026-05-05 17:40 45.19152 10.25020 38992 ft 429 kts 218°
2026-05-05 17:40 45.14287 10.20090 38999 ft 429 kts 218°
2026-05-05 17:41 45.09454 10.15191 38990 ft 428 kts 218°
2026-05-05 17:41 45.04601 10.10288 38998 ft 428 kts 218°
2026-05-05 17:42 44.99767 10.05415 38995 ft 428 kts 218°
2026-05-05 17:42 44.94917 10.00526 38980 ft 428 kts 218°
2026-05-05 17:43 44.90076 9.95649 38976 ft 427 kts 218°
2026-05-05 17:43 44.85232 9.90780 38983 ft 427 kts 218°
2026-05-05 17:44 44.80390 9.85924 38979 ft 427 kts 218°
2026-05-05 17:44 44.75586 9.81120 38968 ft 426 kts 218°
2026-05-05 17:45 44.70734 9.76286 38980 ft 426 kts 218°
2026-05-05 17:45 44.65886 9.71466 38983 ft 426 kts 218°
2026-05-05 17:46 44.61041 9.66657 38983 ft 426 kts 218°
2026-05-05 17:46 44.56232 9.61887 38976 ft 426 kts 218°
2026-05-05 17:47 44.51389 9.57090 38979 ft 425 kts 218°
2026-05-05 17:47 44.46552 9.52311 38979 ft 426 kts 218°
2026-05-05 17:48 44.41712 9.47535 38976 ft 425 kts 218°
2026-05-05 17:48 44.36888 9.42794 38971 ft 425 kts 218°
2026-05-05 17:49 44.32037 9.38042 38972 ft 425 kts 218°
2026-05-05 17:49 44.27186 9.33285 38967 ft 425 kts 218°
2026-05-05 17:50 44.22368 9.28573 38958 ft 426 kts 218°
2026-05-05 17:50 44.17509 9.23840 38976 ft 426 kts 218°
2026-05-05 17:51 44.12647 9.19116 38981 ft 425 kts 218°
2026-05-05 17:51 44.07794 9.14393 38978 ft 425 kts 218°
2026-05-05 17:52 44.02950 9.09692 38977 ft 425 kts 218°
2026-05-05 17:52 43.98129 9.05039 38992 ft 424 kts 218°
2026-05-05 17:53 43.93275 9.00352 38986 ft 423 kts 218°
2026-05-05 17:53 43.88460 8.95710 38985 ft 423 kts 218°
2026-05-05 17:54 43.83612 8.91041 38973 ft 422 kts 218°
2026-05-05 17:54 43.78819 8.86445 38977 ft 421 kts 218°
2026-05-05 17:55 43.73996 8.81824 38982 ft 421 kts 218°
2026-05-05 17:55 43.69178 8.77223 38939 ft 419 kts 218°
2026-05-05 17:56 43.64309 8.72921 38957 ft 420 kts 208°
2026-05-05 17:56 43.61515 8.71625 38976 ft 427 kts 196°
2026-05-05 17:56 43.58519 8.71191 38955 ft 437 kts 186°
2026-05-05 17:57 43.52477 8.70908 38952 ft 428 kts 200°
2026-05-05 17:57 43.49763 8.69357 38944 ft 418 kts 214°
2026-05-05 17:57 43.47294 8.67325 38957 ft 418 kts 215°
2026-05-05 17:58 43.42302 8.63195 38964 ft 418 kts 215°
2026-05-05 17:58 43.37319 8.59075 38976 ft 418 kts 215°
2026-05-05 17:59 43.32506 8.54649 38978 ft 414 kts 222°
2026-05-05 17:59 43.28235 8.49431 38973 ft 411 kts 226°
2026-05-05 18:00 43.24799 8.44903 38976 ft 410 kts 226°
2026-05-05 18:00 43.19926 8.38704 38979 ft 409 kts 225°
2026-05-05 18:01 43.15699 8.33554 38977 ft 408 kts 224°
2026-05-05 18:01 43.11436 8.28400 38940 ft 407 kts 224°
2026-05-05 18:02 43.07908 8.24110 38951 ft 406 kts 224°
2026-05-05 18:02 43.03697 8.18972 38944 ft 406 kts 224°
2026-05-05 18:03 42.99475 8.13824 38942 ft 406 kts 224°
2026-05-05 18:03 42.95284 8.08732 38950 ft 406 kts 224°
2026-05-05 18:04 42.91050 8.03612 38943 ft 405 kts 224°
2026-05-05 18:04 42.86855 7.98547 38955 ft 405 kts 224°
2026-05-05 18:05 42.82626 7.93451 38970 ft 405 kts 224°
2026-05-05 18:05 42.78402 7.88369 38954 ft 405 kts 224°
2026-05-05 18:06 42.74205 7.83316 38927 ft 404 kts 224°
2026-05-05 18:06 42.69988 7.78254 38944 ft 402 kts 224°
2026-05-05 18:07 42.65812 7.73252 38944 ft 402 kts 224°
2026-05-05 18:07 42.61604 7.68217 38943 ft 402 kts 224°
2026-05-05 18:08 42.57408 7.63200 38957 ft 403 kts 224°
2026-05-05 18:08 42.53193 7.58190 38979 ft 403 kts 224°
2026-05-05 18:09 42.48987 7.53200 38961 ft 404 kts 224°
2026-05-05 18:09 42.44748 7.48164 38961 ft 404 kts 224°
2026-05-05 18:10 42.40526 7.43159 38959 ft 405 kts 224°
2026-05-05 18:10 42.36278 7.38138 38941 ft 404 kts 223°
2026-05-05 18:11 42.32055 7.33165 38943 ft 401 kts 224°
2026-05-05 18:11 42.27879 7.28240 38936 ft 400 kts 224°
2026-05-05 18:12 42.23693 7.23315 38936 ft 400 kts 223°
2026-05-05 18:12 42.19480 7.18368 38941 ft 400 kts 223°
2026-05-05 18:13 42.15265 7.13439 38931 ft 400 kts 223°
2026-05-05 18:13 42.11083 7.08556 38937 ft 399 kts 223°
2026-05-05 18:14 42.06872 7.03634 38939 ft 399 kts 223°
2026-05-05 18:14 42.02692 6.98767 38932 ft 399 kts 223°
2026-05-05 18:15 41.98532 6.93809 38914 ft 399 kts 225°
2026-05-05 18:15 41.94443 6.88735 38928 ft 399 kts 225°
2026-05-05 18:16 41.90377 6.83695 38955 ft 400 kts 225°
2026-05-05 18:16 41.86264 6.78653 38952 ft 400 kts 224°
2026-05-05 18:17 41.82157 6.73658 38956 ft 401 kts 224°
2026-05-05 18:17 41.78021 6.68621 38935 ft 401 kts 225°
2026-05-05 18:18 41.73899 6.63603 38944 ft 400 kts 224°
2026-05-05 18:18 41.69792 6.58626 38948 ft 400 kts 224°
2026-05-05 18:19 41.65661 6.53622 38951 ft 400 kts 224°
2026-05-05 18:19 41.61558 6.48654 38951 ft 400 kts 224°
2026-05-05 18:20 41.57419 6.43665 38957 ft 399 kts 224°
2026-05-05 18:20 41.53313 6.38715 38953 ft 399 kts 224°
2026-05-05 18:21 41.49178 6.33738 38953 ft 399 kts 224°
2026-05-05 18:21 41.45071 6.28817 38951 ft 399 kts 224°
2026-05-05 18:22 41.40935 6.23869 38947 ft 399 kts 224°
2026-05-05 18:22 41.36807 6.18914 38927 ft 399 kts 224°
2026-05-05 18:23 41.32666 6.13971 38934 ft 400 kts 224°
2026-05-05 18:23 41.28515 6.09029 38939 ft 400 kts 224°
2026-05-05 18:24 41.24374 6.04091 38952 ft 400 kts 224°
2026-05-05 18:24 41.20241 5.99182 38946 ft 400 kts 224°
2026-05-05 18:25 41.16071 5.94245 38918 ft 401 kts 224°
2026-05-05 18:25 41.11932 5.89340 38927 ft 401 kts 224°
2026-05-05 18:26 41.07755 5.84401 38934 ft 401 kts 224°
2026-05-05 18:26 41.03608 5.79507 38934 ft 401 kts 224°
2026-05-05 18:27 40.99429 5.74588 38931 ft 401 kts 224°
2026-05-05 18:27 40.95288 5.69696 38930 ft 400 kts 227°
2026-05-05 18:28 40.90453 5.61126 38619 ft 383 kts 235°
2026-05-05 18:28 40.88916 5.58256 38337 ft 382 kts 235°
2026-05-05 18:28 40.87379 5.55394 37858 ft 380 kts 235°
2026-05-05 18:29 40.85875 5.52591 37301 ft 376 kts 235°
2026-05-05 18:29 40.84370 5.49782 36744 ft 373 kts 235°
2026-05-05 18:29 40.82873 5.46990 36151 ft 371 kts 235°
2026-05-05 18:29 40.81395 5.44237 35885 ft 361 kts 235°
2026-05-05 18:30 40.79962 5.41567 35492 ft 354 kts 234°
2026-05-05 18:30 40.78531 5.38910 34919 ft 353 kts 234°
2026-05-05 18:30 40.77116 5.36288 34492 ft 348 kts 234°
2026-05-05 18:30 40.75731 5.33724 34082 ft 344 kts 234°
2026-05-05 18:31 40.74347 5.31167 33642 ft 341 kts 234°
2026-05-05 18:31 40.72975 5.28637 33206 ft 336 kts 234°
2026-05-05 18:31 40.71621 5.26143 32806 ft 330 kts 234°
2026-05-05 18:31 40.70296 5.23702 32409 ft 325 kts 234°
2026-05-05 18:32 40.68991 5.21299 32021 ft 320 kts 234°
2026-05-05 18:32 40.67703 5.18926 31641 ft 315 kts 234°
2026-05-05 18:32 40.66455 5.16624 31270 ft 310 kts 234°
2026-05-05 18:32 40.65209 5.14324 30902 ft 306 kts 234°
2026-05-05 18:33 40.63980 5.12062 30547 ft 301 kts 234°
2026-05-05 18:33 40.62764 5.09827 30199 ft 298 kts 234°
2026-05-05 18:33 40.61559 5.07610 29837 ft 296 kts 234°
2026-05-05 18:33 40.60362 5.05409 29486 ft 295 kts 234°
2026-05-05 18:34 40.59167 5.03219 29149 ft 294 kts 234°
2026-05-05 18:34 40.57978 5.01042 28804 ft 292 kts 235°
2026-05-05 18:34 40.56806 4.98894 28489 ft 291 kts 235°
2026-05-05 18:34 40.55620 4.96726 28183 ft 290 kts 235°
2026-05-05 18:35 40.54440 4.94566 27883 ft 289 kts 235°
2026-05-05 18:35 40.53273 4.92430 27540 ft 286 kts 235°
2026-05-05 18:35 40.52127 4.90330 27220 ft 285 kts 235°
2026-05-05 18:35 40.50975 4.88225 26892 ft 284 kts 235°
2026-05-05 18:36 40.49821 4.86124 26560 ft 283 kts 235°
2026-05-05 18:36 40.48663 4.84021 26223 ft 282 kts 235°
2026-05-05 18:36 40.47514 4.81940 25887 ft 281 kts 235°
2026-05-05 18:36 40.46366 4.79860 25541 ft 280 kts 236°
2026-05-05 18:37 40.45222 4.77779 25192 ft 279 kts 236°
2026-05-05 18:37 40.44101 4.75736 24851 ft 278 kts 236°
2026-05-05 18:37 40.42963 4.73666 24406 ft 279 kts 236°
2026-05-05 18:37 40.41827 4.71603 23963 ft 279 kts 236°
2026-05-05 18:38 40.40691 4.69536 23536 ft 279 kts 236°
2026-05-05 18:38 40.39551 4.67464 23037 ft 279 kts 236°
2026-05-05 18:38 40.38418 4.65404 22694 ft 280 kts 236°
2026-05-05 18:38 40.37237 4.63258 22454 ft 296 kts 236°
2026-05-05 18:39 40.36035 4.61079 22208 ft 300 kts 235°
2026-05-05 18:39 40.34807 4.58862 21947 ft 300 kts 235°
2026-05-05 18:39 40.33579 4.56649 21699 ft 299 kts 235°
2026-05-05 18:39 40.32355 4.54442 21419 ft 297 kts 235°
2026-05-05 18:40 40.31138 4.52253 21154 ft 296 kts 235°
2026-05-05 18:40 40.29924 4.50069 20893 ft 295 kts 235°
2026-05-05 18:40 40.28735 4.47921 20635 ft 294 kts 235°
2026-05-05 18:40 40.27530 4.45745 20372 ft 294 kts 235°
2026-05-05 18:41 40.26327 4.43578 20117 ft 293 kts 235°
2026-05-05 18:41 40.25129 4.41421 19857 ft 292 kts 234°
2026-05-05 18:41 40.23930 4.39269 19599 ft 291 kts 234°
2026-05-05 18:41 40.22754 4.37159 19342 ft 291 kts 234°
2026-05-05 18:42 40.21562 4.35016 19094 ft 290 kts 234°
2026-05-05 18:42 40.20372 4.32878 18839 ft 289 kts 234°
2026-05-05 18:42 40.19187 4.30753 18585 ft 288 kts 234°
2026-05-05 18:42 40.18005 4.28639 18321 ft 288 kts 234°
2026-05-05 18:43 40.16826 4.26531 18041 ft 287 kts 234°
2026-05-05 18:43 40.15665 4.24459 17799 ft 286 kts 234°
2026-05-05 18:43 40.14492 4.22359 17541 ft 285 kts 234°
2026-05-05 18:43 40.13323 4.20266 17288 ft 284 kts 234°
2026-05-05 18:44 40.12159 4.18186 17052 ft 282 kts 234°
2026-05-05 18:44 40.11004 4.16126 16796 ft 280 kts 234°
2026-05-05 18:44 40.09849 4.14070 16546 ft 279 kts 234°
2026-05-05 18:44 40.08716 4.12053 16305 ft 278 kts 234°
2026-05-05 18:45 40.07570 4.10012 16076 ft 277 kts 234°
2026-05-05 18:45 40.06427 4.07979 15828 ft 277 kts 234°
2026-05-05 18:45 40.05288 4.05958 15582 ft 277 kts 234°
2026-05-05 18:45 40.04143 4.03933 15340 ft 276 kts 233°
2026-05-05 18:46 40.03023 4.01946 15099 ft 275 kts 234°
2026-05-05 18:46 40.01889 3.99932 14848 ft 274 kts 233°
2026-05-05 18:46 40.00758 3.97926 14620 ft 273 kts 233°
2026-05-05 18:46 39.99636 3.95931 14376 ft 273 kts 233°
2026-05-05 18:47 39.98516 3.93943 14132 ft 271 kts 233°
2026-05-05 18:47 39.97399 3.91962 13893 ft 271 kts 233°
2026-05-05 18:47 39.96279 3.89986 13636 ft 270 kts 233°
2026-05-05 18:47 39.95163 3.88013 13391 ft 271 kts 233°
2026-05-05 18:48 39.94046 3.86037 13147 ft 270 kts 233°
2026-05-05 18:48 39.92927 3.84063 12911 ft 270 kts 233°
2026-05-05 18:48 39.91824 3.82115 12675 ft 270 kts 234°
2026-05-05 18:48 39.90711 3.80151 12451 ft 269 kts 234°
2026-05-05 18:49 39.89598 3.78184 12198 ft 268 kts 234°
2026-05-05 18:49 39.88488 3.76222 11946 ft 268 kts 234°
2026-05-05 18:49 39.87380 3.74265 11721 ft 268 kts 234°
2026-05-05 18:49 39.86286 3.72340 11489 ft 268 kts 234°
2026-05-05 18:50 39.85175 3.70390 11252 ft 268 kts 234°
2026-05-05 18:50 39.84062 3.68437 11013 ft 268 kts 234°
2026-05-05 18:50 39.82952 3.66492 10781 ft 268 kts 234°
2026-05-05 18:50 39.81843 3.64547 10540 ft 268 kts 234°
2026-05-05 18:51 39.80735 3.62603 10302 ft 268 kts 234°
2026-05-05 18:51 39.79637 3.60679 10083 ft 268 kts 234°
2026-05-05 18:51 39.78525 3.58732 9838 ft 268 kts 234°
2026-05-05 18:51 39.77411 3.56787 9580 ft 268 kts 234°
2026-05-05 18:52 39.76299 3.54844 9344 ft 267 kts 234°
2026-05-05 18:52 39.75210 3.52946 9170 ft 257 kts 234°
2026-05-05 18:52 39.74173 3.51143 9040 ft 246 kts 234°
2026-05-05 18:52 39.73169 3.49392 8903 ft 236 kts 234°
2026-05-05 18:53 39.72205 3.47708 8692 ft 229 kts 234°
2026-05-05 18:53 39.71256 3.46050 8361 ft 228 kts 234°
2026-05-05 18:53 39.70444 3.44307 8044 ft 226 kts 252°
2026-05-05 18:53 39.70289 3.42293 7704 ft 226 kts 270°
2026-05-05 18:54 39.70381 3.40255 7343 ft 226 kts 272°
2026-05-05 18:54 39.70497 3.38220 6999 ft 225 kts 272°
2026-05-05 18:54 39.70614 3.36197 6680 ft 224 kts 272°
2026-05-05 18:54 39.70730 3.34180 6340 ft 223 kts 272°
2026-05-05 18:55 39.70835 3.32199 5986 ft 222 kts 272°
2026-05-05 18:55 39.70933 3.30196 5613 ft 222 kts 272°
2026-05-05 18:55 39.71020 3.28199 5297 ft 220 kts 272°
2026-05-05 18:55 39.71101 3.26220 5041 ft 217 kts 272°
2026-05-05 18:56 39.71149 3.24924 4985 ft 217 kts 272°
2026-05-05 18:56 39.71243 3.22309 4988 ft 220 kts 272°
2026-05-05 18:56 39.71313 3.20321 4989 ft 220 kts 272°
2026-05-05 18:56 39.71361 3.19005 4989 ft 219 kts 272°
2026-05-05 18:57 39.71428 3.17028 4989 ft 219 kts 272°
2026-05-05 18:57 39.71514 3.14398 4989 ft 219 kts 272°
2026-05-05 18:57 39.71562 3.13056 4989 ft 220 kts 272°
2026-05-05 18:57 39.71585 3.11098 4988 ft 219 kts 263°
2026-05-05 18:58 39.71082 3.09238 4988 ft 222 kts 242°
2026-05-05 18:58 39.70277 3.07519 4989 ft 222 kts 240°
2026-05-05 18:58 39.69469 3.05803 4988 ft 222 kts 241°
2026-05-05 18:58 39.68662 3.04081 4834 ft 223 kts 241°
2026-05-05 18:59 39.67857 3.02361 4573 ft 222 kts 241°
2026-05-05 18:59 39.67065 3.00670 4288 ft 221 kts 241°
2026-05-05 18:59 39.66268 2.98969 3987 ft 220 kts 241°
2026-05-05 18:59 39.65475 2.97278 3707 ft 219 kts 241°
2026-05-05 19:00 39.64681 2.95587 3416 ft 218 kts 241°
2026-05-05 19:00 39.63889 2.93899 3130 ft 217 kts 241°
2026-05-05 19:00 39.63114 2.92249 2841 ft 213 kts 240°
2026-05-05 19:00 39.62361 2.90649 2574 ft 204 kts 240°
2026-05-05 19:01 39.61620 2.89071 2318 ft 204 kts 239°
2026-05-05 19:01 39.60878 2.87494 2041 ft 204 kts 240°
2026-05-05 19:01 39.60153 2.85953 1756 ft 195 kts 239°
2026-05-05 19:01 39.59474 2.84513 1518 ft 186 kts 240°
2026-05-05 19:02 39.58814 2.83111 1275 ft 177 kts 238°
2026-05-05 19:02 39.58195 2.81797 1053 ft 165 kts 238°
2026-05-05 19:02 39.57609 2.80553 835 ft 156 kts 238°
2026-05-05 19:02 39.57062 2.79393 634 ft 145 kts 238°
2026-05-05 19:03 39.56561 2.78327 435 ft 134 kts 238°
2026-05-05 19:03 39.56082 2.77312 253 ft 131 kts 237°
2026-05-05 19:03 39.55610 2.76306 88 ft 131 kts 237°
2026-05-05 19:03 39.55175 2.75386 38 ft 103 kts 238°
2026-05-05 19:04 39.54902 2.74814 38 ft 30 kts 238°
2026-05-05 19:04 39.54825 2.74575 38 ft 29 kts 255°
2026-05-05 19:04 39.54804 2.74347 38 ft 10 kts 268°
2026-05-05 19:04 39.54802 2.74252 38 ft 9 kts 269°
2026-05-05 19:05 39.54802 2.74247 38 ft 0 kts 269°
2026-05-05 19:05 39.54802 2.74227 38 ft 5 kts 269°
2026-05-05 19:06 39.54801 2.74181 38 ft 5 kts 266°
2026-05-05 19:06 39.54792 2.74141 36 ft 5 kts 247°
2026-05-05 19:06 39.54768 2.74083 38 ft 10 kts 240°
2026-05-05 19:06 39.54730 2.74003 38 ft 9 kts 239°
2026-05-05 19:07 39.54758 2.73947 38 ft 7 kts 332°
2026-05-05 19:07 39.54798 2.73960 36 ft 6 kts 30°
2026-05-05 19:07 39.54835 2.73973 38 ft 6 kts 350°
2026-05-05 19:07 39.54853 2.73910 38 ft 8 kts 269°
2026-05-05 19:08 39.54852 2.73851 38 ft 4 kts 268°
2026-05-05 19:08 39.54851 2.73838 38 ft 0 kts 268°
2026-05-05 19:09 39.54851 2.73839 38 ft 0 kts 268°